URWW

Volgograd International Airport

Airport
ICAO code
URWW
IATA Code
VOG
Summary
ICAO Region
EUR
ICAO Territory
Location

Gumrak, Volgograd Oblast

Serving
Volgograd
Elevation
482 ft
Coordinates
48° 46' 54" N , 44° 20' 48" E
KCC
Metar
URWW 172230Z 14002MPS CAVOK 23/18 Q1015 R05/010070 TEMPO VRB20MPS 1000 TSRAGR SQ BKN004 BKN020CB

Volgograd International Airport is an airport located 15 km northwest of the city of Volgograd, formerly Stalingrad, in Russia.

Climatology

Hot summer humid continental climate (Köppen climate classification Aw)

Runways

Designator Length Width Surface Rops
8/26 486 107 GRS No/No
11R/29L 1699 101 GRS No/No
11/29 2469 49 ASP Yes/Yes

Airport map

Aerial View

SKYbrary Partners:

Safety knowledge contributed by: